CAPE
0 0 0 0 0 0 0 0 0 0 0 0 0 0 0 0 0 0 0 0 0 0 0 0 0 0 0 0 0 0 0 0 0 0 0 0 0 0 0 0 0 0 0 0 0 0 0
0 0 0 0 0 0 0 0 0 0 0 0 0 0 0 0 0 0 0 0 0 0 0 0 0 0 0 0 0 0 0 0 0 0 0 0 0 0 0 0 0 0 0 0 0 0 0
5 0 10 0 0 0 0 0 0 0 0 0 0 0 0 0 0 0 0 0 0 0 0 0 0 0 0 0 0 0 0 0 0 0 0 0 0 0 0 0 0 0 0 0 0 0 0
22 7 28 31 20 2 13 1 0 1 0 0 1 0 0 0 0 0 0 0 0 0 0 0 0 0 0 0 0 0 0 0 0 0 0 0 0 0 0 0 0 0 0 0 0 0 0
8 12 4 14 27 26 29 22 25 16 1 2 0 0 0 0 0 0 0 0 0 0 0 0 0 0 0 0 0 0 0 0 0 0 0 0 0 0 0 0 0 0 0 0 0 0 0
0 3 1 1 0 0 5 3 5 0 0 0 0 0 0 0 0 0 0 0 0 0 0 0 0 0 0 0 0 0 0 0 0 0 0 0 0 0 0 0 0 0 0 0 0 0 0
2 1 0 0 0 0 0 2 0 0 0 0 0 0 0 0 0 0 0 0 0 0 0 0 0 0 0 0 0 0 0 0 0 0 0 0 0 0 0 0 0 0 0 0 0 0 0
3 3 0 1 0 0 0 0 0 0 1 2 0 1 0 0 0 0 0 0 0 0 0 0 0 0 0 0 0 0 0 0 0 0 0 0 0 0 0 0 0 0 0 0 0 0 0
11 10 2 0 1 0 0 0 0 1 2 1 2 1 0 0 0 0 0 0 0 0 0 0 0 0 0 0 0 0 0 0 0 0 0 0 0 0 0 0 0 0 0 0 0 0 0
0 0 0 4 7 10 1 3 0 1 2 2 2 0 0 0 0 0 0 0 0 0 0 0 0 0 0 0 0 0 0 0 0 0 0 0 0 0 0 0 0 0 0 0 0 0 0
15 1 0 0 0 41 19 27 1 0 1 2 1 0 0 0 0 0 0 0 0 0 0 0 0 0 0 0 0 0 0 0 0 0 0 0 0 0 0 0 0 0 0 0 0 0 0
28 9 0 0 0 0 2 19 10 0 3 1 1 0 0 0 0 0 0 0 0 0 0 0 0 0 0 0 0 0 0 0 0 0 0 0 0 0 0 0 0 0 0 0 0 0 0
0 4 3 0 0 0 2 0 13 1 0 0 0 0 0 0 0 0 0 0 0 0 0 0 0 0 0 0 0 0 0 0 0 0 0 0 0 0 0 0 0 0 0 0 0 0 0
0 0 0 1 6 4 0 0 1 4 2 0 1 0 0 0 0 0 0 0 0 0 0 0 0 0 0 0 0 0 0 0 0 0 0 0 0 0 0 0 0 0 0 0 0 0 0
0 0 0 0 0 0 4 1 0 0 1 2 2 3 1 0 0 0 0 0 0 0 0 0 0 0 0 0 0 0 0 0 0 0 0 0 0 0 0 0 0 0 0 0 0 0 0
3 0 0 0 0 0 0 0 0 0 0 1 1 1 0 0 0 0 0 0 0 0 0 0 0 0 0 0 0 0 0 0 0 0 0 0 0 0 0 0 0 0 0 0 0 0 0
3 3 0 0 0 0 0 0 0 5 0 0 1 1 1 0 1 1 0 0 0 0 0 0 0 0 0 0 0 0 0 0 0 0 0 0 0 0 0 0 0 0 0 0 0 0 0
0 0 0 0 0 0 0 0 0 0 11 3 3 1 1 0 1 0 0 0 0 0 0 0 0 0 0 0 0 0 0 0 0 0 0 0 0 0 0 0 0 0 0 0 0 0 0
1 1 0 0 0 0 0 0 0 0 0 18 0 0 0 5 0 0 0 0 0 0 0 0 0 0 0 0 0 0 0 0 0 0 0 0 0 0 0 0 0 0 0 0 0 0 0
0 0 4 3 1 3 3 0 0 1 7 0 1 5 0 1 0 0 1 1 1 0 0 0 0 0 0 0 0 0 0 0 0 0 0 0 0 0 0 0 0 0 1 1 0 0 0
0 0 0 0 3 3 1 7 0 0 17 0 1 2 1 9 0 0 1 0 0 1 0 0 0 0 0 0 0 0 0 0 0 0 0 0 0 0 0 0 0 0 0 0 0 0 0
7 2 0 2 3 0 3 4 12 0 7 5 0 0 0 0 0 0 0 0 0 0 0 0 0 0 0 0 0 0 0 0 0 0 0 0 0 0 0 0 0 0 0 0 0 0 0
4 4 4 7 0 6 5 6 5 14 4 0 6 1 2 1 1 0 0 0 0 1 0 0 0 0 0 0 0 0 0 0 0 0 1 0 0 0 0 0 0 0 0 0 0 0 0
3 2 2 3 12 4 4 9 16 5 12 0 0 1 0 0 0 0 0 0 0 0 0 0 0 0 0 0 0 0 0 0 0 0 0 0 0 1 0 0 0 0 0 0 0 0 0
18 16 9 7 4 6 15 11 13 30 23 4 2 11 1 0 0 0 0 0 0 0 0 0 2 0 0 1 0 0 0 0 0 0 0 0 0 1 6 2 0 0 0 0 0 0 0
4 4 5 11 21 15 7 8 15 28 30 4 6 11 11 5 0 0 0 0 0 0 0 0 0 10 2 0 0 0 0 0 0 0 0 0 6 11 1 2 0 0 0 0 0 0 0
8 10 14 12 11 13 10 8 13 24 30 12 1 11 8 6 0 0 0 0 0 0 1 0 1 13 0 0 0 0 0 0 0 0 0 0 0 0 0 3 0 0 0 0 0 0 0
3 5 7 8 13 19 13 5 2 22 33 10 10 4 2 0 0 1 0 0 0 2 0 4 32 10 0 0 0 0 0 0 0 0 0 0 0 0 0 1 0 0 0 0 0 0 0
7 9 7 1 5 15 13 16 1 20 41 26 4 2 4 15 0 0 0 0 0 0 0 0 1 1 1 0 0 0 0 0 0 0 0 0 0 0 0 0 0 0 0 0 0 0 0
CIN
-0 -0 -0 -0 -0 -0 -0 -0 -0 -0 -0 -0 -0 -0 -0 -0 -0 -0 -0 -0 -0 -0 -0 -0 -0 -0 -0 -0 -0 -0 -0 -0 -0 -0 -0 -0 -0 -0 -0 -0 -0 -0 -0 -0 -0 -0 -0
-0 -0 -0 -0 -0 -0 -0 -0 -0 -0 -0 -0 -0 -0 -0 -0 -0 -0 -0 -0 -0 -0 -0 -0 -0 -0 -0 -0 -0 -0 -0 -0 -0 -0 -0 -0 -0 -0 -0 -0 -0 -0 -0 -0 -0 -0 -0
-5 -0 -6 -0 -0 -0 -0 -0 -0 -0 -0 -0 -0 -0 -0 -0 -0 -0 -0 -0 -0 -0 -0 -0 -0 -0 -0 -0 -0 -0 -0 -0 -0 -0 -0 -0 -0 -0 -0 -0 -0 -0 -0 -0 -0 -0 -0
-0 -2 -6 -4 -7 -1 -2 -0 -1 -5 -1 -1 -9 -3 -5 -0 -0 -0 -0 -0 -0 -0 -0 -0 -0 -0 -0 -0 -0 -0 -0 -0 -0 -0 -0 -0 -0 -0 -0 -0 -0 -0 -0 -0 -0 -0 -0
-7 -18 -7 -10 -9 -11 -10 -14 -21 -8 -7 -14 -0 -0 -0 -0 -0 -0 -0 -0 -0 -0 -0 -0 -0 -0 -0 -0 -0 -0 -0 -0 -0 -0 -0 -0 -0 -0 -0 -0 -0 -0 -0 -0 -0 -0 -0
-0 -78 -0 -2 -0 -13 -59 -71 -42 -0 -0 -0 -0 -0 -0 -0 -0 -0 -0 -0 -0 -0 -0 -0 -0 -0 -0 -0 -0 -0 -0 -0 -0 -0 -0 -0 -0 -0 -0 -0 -0 -0 -0 -0 -0 -0 -0
-0 -0 -74 -0 -0 -0 -0 -0 -0 -0 -0 -0 -0 -0 -0 -0 -0 -0 -0 -0 -0 -0 -0 -0 -0 -0 -0 -0 -0 -0 -0 -0 -0 -0 -0 -0 -0 -0 -0 -0 -0 -0 -0 -0 -0 -0 -0
-0 -0 -0 -0 -0 -0 -0 -0 -0 -0 -0 -0 -0 -0 -0 -0 -0 -0 -0 -0 -0 -0 -0 -0 -0 -0 -0 -0 -0 -0 -0 -0 -0 -0 -0 -0 -0 -0 -0 -0 -0 -0 -0 -0 -0 -0 -0
-0 -0 -1 -1 -0 -0 -0 -0 -0 -0 -0 -0 -0 -0 -0 -0 -0 -0 -0 -0 -0 -0 -0 -0 -0 -0 -0 -0 -0 -0 -0 -0 -0 -0 -0 -0 -0 -0 -0 -0 -0 -0 -0 -0 -0 -0 -0
-0 -0 -0 -0 -0 -0 -0 -6 -0 -0 -0 -0 -0 -0 -0 -0 -0 -0 -0 -0 -0 -0 -0 -0 -0 -0 -0 -0 -0 -0 -0 -0 -0 -0 -0 -0 -0 -0 -0 -0 -0 -0 -0 -0 -0 -0 -0
-24 -40 -0 -0 -0 -0 -4 -0 -12 -1 -0 -0 -0 -0 -0 -0 -0 -0 -0 -0 -0 -0 -0 -0 -0 -0 -0 -0 -0 -0 -0 -0 -0 -0 -0 -0 -0 -0 -0 -0 -0 -0 -0 -0 -0 -0 -0
-2 -1 -0 -0 -0 -2 -12 -1 -2 -0 -0 -0 -0 -0 -0 -0 -0 -0 -0 -0 -0 -0 -0 -0 -0 -0 -0 -0 -0 -0 -0 -0 -0 -0 -0 -0 -0 -0 -0 -0 -0 -0 -0 -0 -0 -0 -0
-1 -0 -0 -0 -0 -0 -0 -27 -1 -5 -0 -0 -0 -0 -0 -0 -0 -0 -0 -0 -0 -0 -0 -0 -0 -0 -0 -0 -0 -0 -0 -0 -0 -0 -0 -0 -0 -0 -0 -0 -0 -0 -0 -0 -0 -0 -0
-0 -0 -0 -0 -0 -0 -0 -0 -0 -2 -23 -0 -0 -0 -0 -0 -0 -0 -0 -0 -0 -0 -0 -0 -0 -0 -0 -0 -0 -0 -0 -0 -0 -0 -0 -0 -0 -0 -0 -0 -0 -0 -0 -0 -0 -0 -0
-0 -0 -0 -0 -0 -0 -0 -0 -0 -0 -0 -0 -0 -0 -0 -0 -0 -0 -0 -0 -0 -0 -0 -0 -0 -0 -0 -0 -0 -0 -0 -0 -0 -0 -0 -0 -0 -0 -0 -0 -0 -0 -0 -0 -0 -0 -0
-0 -0 -0 -0 -0 -0 -0 -0 -0 -0 -0 -0 -0 -0 -0 -0 -0 -0 -0 -0 -0 -0 -0 -0 -0 -0 -0 -0 -0 -0 -0 -0 -0 -0 -0 -0 -0 -0 -0 -0 -0 -0 -0 -0 -0 -0 -0
-4 -3 -0 -0 -0 -0 -0 -0 -0 -6 -0 -13 -0 -0 -1 -0 -9 -0 -0 -0 -0 -0 -0 -0 -0 -0 -0 -0 -0 -0 -0 -0 -0 -0 -0 -0 -0 -0 -0 -0 -0 -0 -0 -0 -0 -0 -0
-0 -0 -0 -0 -0 -0 -0 -0 -0 -0 -7 -5 -0 -0 -0 -0 -0 -0 -0 -0 -0 -0 -0 -0 -0 -0 -0 -0 -0 -0 -0 -0 -0 -0 -0 -0 -0 -0 -0 -0 -0 -0 -0 -0 -0 -0 -0
-0 -0 -0 -0 -0 -0 -0 -0 -0 -0 -6 -3 -0 -0 -0 -0 -0 -0 -0 -0 -0 -0 -0 -0 -0 -0 -0 -0 -0 -0 -0 -0 -0 -0 -0 -0 -0 -0 -0 -0 -0 -0 -0 -0 -0 -0 -0
-0 -0 -0 -0 -0 -0 -0 -0 -0 -2 -5 -0 -6 -6 -0 -0 -0 -0 -0 -0 -0 -0 -0 -0 -0 -0 -0 -0 -0 -0 -0 -0 -0 -0 -0 -0 -0 -0 -0 -0 -0 -0 -0 -0 -0 -0 -0
-0 -0 -0 -0 -0 -0 -0 -1 -0 -0 -2 -0 -8 -4 -0 -14 -0 -0 -0 -0 -0 -0 -0 -0 -0 -0 -0 -0 -0 -0 -0 -0 -0 -0 -0 -0 -0 -0 -0 -0 -0 -0 -0 -0 -0 -0 -0
-0 -0 -0 -0 -0 -0 -0 -0 -1 -0 -2 -1 -0 -0 -0 -0 -0 -0 -0 -0 -0 -0 -0 -0 -0 -0 -0 -0 -0 -0 -0 -0 -0 -0 -0 -0 -0 -0 -0 -0 -0 -0 -0 -0 -0 -0 -0
-0 -0 -0 -0 -0 -0 -0 -0 -1 -1 -1 -0 -1 -4 -4 -1 -0 -0 -0 -0 -0 -1 -0 -0 -0 -0 -0 -0 -0 -0 -0 -0 -0 -0 -12 -0 -0 -0 -0 -0 -0 -0 -0 -0 -0 -0 -0
-0 -0 -0 -0 -0 -0 -0 -0 -0 -0 -0 -0 -3 -1 -0 -0 -0 -0 -0 -0 -0 -0 -0 -0 -0 -0 -0 -0 -0 -0 -0 -0 -0 -0 -0 -0 -0 -19 -0 -0 -0 -0 -0 -0 -0 -0 -0
-0 -0 -0 -0 -0 -0 -0 -0 -0 -0 -0 -1 -11 -1 -1 -0 -0 -0 -0 -0 -0 -0 -0 -0 -0 -0 -0 -0 -0 -0 -0 -0 -0 -0 -0 -0 -0 -3 -1 -1 -0 -0 -0 -0 -0 -0 -0
-0 -0 -0 -0 -0 -0 -1 -0 -0 -0 -0 -1 -2 -6 -1 -0 -0 -0 -0 -0 -0 -0 -3 -0 -0 -4 -0 -0 -0 -0 -0 -0 -0 -0 -0 -0 -32 -2 -7 -9 -0 -0 -0 -0 -0 -0 -0
-0 -0 -0 -0 -0 -0 -1 -1 -0 -0 -0 -1 -5 -2 -2 -0 -0 -0 -0 -0 -0 -0 -1 -0 -3 -3 -0 -0 -0 -0 -0 -0 -0 -0 -0 -0 -6 -1 -0 -6 -0 -0 -0 -0 -0 -0 -0
-3 -0 -0 -0 -1 -0 -0 -1 -0 -0 -0 -2 -4 -7 -1 -0 -0 -2 -0 -0 -0 -0 -0 -6 -0 -24 -0 -0 -0 -0 -0 -0 -0 -0 -0 -0 -0 -0 -0 -3 -0 -0 -0 -0 -0 -0 -0
-1 -1 -4 -4 -2 -0 -0 -0 -0 -0 -0 -0 -2 -7 -7 -0 -0 -4 -0 -0 -0 -0 -0 -0 -2 -2 -1 -1 -0 -0 -0 -0 -0 -0 -0 -0 -0 -0 -0 -0 -0 -0 -0 -0 -0 -0 -0
Wind_Speed
32 31 30 29 29 29 28 29 30 31 29 29 28 27 27 26 25 25 27 29 29 30 32 33 35 36 30 31 30 22 21 22 22 22 22 21 21 21 20 20 21 19 18 19 19 22 19
34 33 32 31 30 31 30 29 30 31 30 29 29 29 28 26 25 25 27 28 30 31 32 33 33 34 30 39 21 20 23 24 22 22 22 20 19 19 20 20 20 21 21 22 23 21 20
34 34 34 33 32 32 33 31 31 33 32 30 29 28 29 27 26 26 27 29 30 32 32 32 31 29 34 35 23 24 27 23 20 19 20 17 18 20 18 20 20 22 26 26 22 21 21
32 31 31 33 33 33 33 33 34 33 34 33 31 29 28 26 26 27 28 30 31 32 32 30 28 28 37 28 26 29 22 23 18 18 18 19 18 20 20 20 21 24 24 27 22 21 20
30 28 26 27 29 30 32 34 34 35 34 32 29 26 25 25 26 28 29 32 33 32 29 26 28 27 39 28 23 19 15 17 15 15 17 19 18 20 19 19 25 23 27 23 23 16 17
20 19 24 26 24 24 26 28 28 25 24 23 23 22 23 23 26 29 31 32 27 24 25 24 27 31 28 29 22 20 16 13 15 14 17 19 21 20 20 18 22 22 23 23 23 18 17
19 19 12 14 15 18 17 17 16 15 16 16 16 17 17 20 21 24 25 25 30 31 26 30 26 25 24 25 23 19 16 13 14 17 19 20 22 22 19 13 21 24 22 24 22 21 23
15 15 15 15 14 12 14 15 15 14 12 12 10 12 13 17 20 23 20 25 25 25 38 32 33 35 35 29 35 27 19 22 20 24 19 23 25 29 29 25 19 20 23 24 26 25 23
17 17 19 19 19 19 19 18 17 16 15 14 12 12 15 17 19 22 21 20 22 22 35 39 31 35 34 26 36 34 23 25 26 26 23 30 28 23 22 25 25 24 25 27 28 29 29
19 20 20 22 23 22 21 19 18 19 17 15 14 13 16 18 22 22 22 20 20 21 35 36 29 28 23 23 36 24 21 24 27 32 28 33 28 28 28 28 25 31 25 25 27 29 33
22 23 22 22 22 22 24 24 19 18 19 19 16 17 17 19 19 20 22 21 20 21 38 25 22 17 16 18 24 24 18 22 33 29 25 31 26 26 30 31 25 30 25 24 26 28 33
19 20 21 23 23 24 23 22 18 15 16 17 21 18 17 20 22 21 21 21 18 27 37 27 20 22 22 23 23 20 19 17 20 29 32 34 29 27 28 26 24 24 25 27 28 29 41
20 21 22 22 22 21 22 20 17 17 15 15 14 17 17 16 23 19 17 19 29 35 25 29 28 24 26 26 25 22 23 24 27 30 34 32 34 31 29 30 24 23 26 34 36 34 42
20 20 20 20 19 19 19 19 19 21 19 17 16 15 16 16 13 14 16 22 39 34 31 26 27 26 29 26 30 26 25 31 29 28 30 31 36 26 29 32 33 30 29 35 41 39 43
21 21 20 20 20 19 18 18 16 18 19 18 13 16 18 16 12 9 19 35 38 34 30 32 28 30 32 30 29 28 32 34 29 27 30 30 34 26 25 24 21 29 34 35 41 38 42
21 21 21 21 21 21 22 21 20 19 18 20 15 17 22 14 12 14 28 37 34 28 28 29 34 29 33 31 31 28 29 28 32 27 25 28 38 30 28 23 21 25 21 30 31 42 45
19 20 21 21 22 22 22 21 20 20 18 17 21 24 21 10 12 23 35 36 33 27 27 32 34 33 31 31 29 29 30 28 28 28 24 29 32 32 28 28 29 28 32 30 30 34 42
19 20 20 20 21 21 22 21 20 20 17 17 22 28 19 10 25 26 35 30 26 26 27 28 29 33 32 30 29 29 29 29 28 25 26 26 28 37 36 28 24 25 28 29 37 39 34
17 18 18 18 19 20 20 20 20 20 19 19 24 24 19 20 32 32 29 32 30 30 29 27 31 28 24 28 33 30 26 20 22 25 27 27 31 38 34 30 27 29 29 30 31 33 40
17 17 18 18 18 18 19 20 21 21 20 21 24 32 24 23 27 32 33 36 37 31 32 28 29 28 29 32 28 27 26 21 21 22 22 23 28 33 38 34 28 32 32 30 31 35 37
18 18 18 18 18 18 17 17 18 18 18 21 27 32 29 30 32 32 31 32 36 37 31 28 31 31 31 34 33 34 29 26 25 23 26 23 31 31 30 28 28 32 35 32 32 31 35
18 19 19 18 18 18 18 17 17 17 16 22 27 30 29 34 34 32 28 33 36 34 31 35 36 30 29 32 29 32 28 28 30 23 24 21 33 30 37 32 32 36 36 33 34 36 35
22 22 22 20 20 20 19 18 17 17 16 21 22 23 27 33 33 35 35 33 30 28 30 31 32 34 34 34 32 31 26 24 26 26 24 22 28 28 37 31 30 38 35 31 30 29 30
26 25 25 23 22 20 20 19 18 17 17 19 20 22 29 40 36 38 37 34 35 30 33 29 28 28 27 22 21 23 26 29 30 29 24 27 27 28 37 32 44 31 27 29 31 33 31
23 22 21 21 21 20 18 17 17 15 14 18 19 23 28 38 37 40 40 38 38 39 36 34 35 31 29 27 26 30 32 31 31 30 26 24 26 32 35 36 37 40 36 33 33 37 34
26 27 26 23 23 20 19 18 14 14 13 15 18 18 24 34 40 37 40 39 42 40 41 38 30 23 22 25 25 29 32 28 28 28 23 21 25 28 29 34 40 35 27 22 24 40 28
18 29 39 34 25 17 13 16 16 13 13 13 17 15 21 32 35 34 36 38 35 39 38 30 29 24 19 25 25 25 27 20 25 25 25 22 24 28 30 31 31 29 22 16 28 31 22
14 15 24 24 21 16 13 13 14 14 13 13 18 11 16 29 37 33 33 39 40 39 44 34 30 29 25 26 26 24 24 23 23 21 18 19 20 25 23 25 30 14 13 19 18 18 17
20 17 19 19 19 17 14 14 14 14 12 11 17 12 15 25 31 28 32 41 43 44 42 41 39 31 28 28 26 24 25 25 23 26 20 21 18 18 17 21 16 7 14 13 17 15 14
Wind_Direction
266 266 267 269 270 272 274 276 278 279 281 283 285 288 291 295 300 305 309 312 314 316 318 321 323 323 326 316 313 329 334 332 336 338 335 332 329 324 315 317 314 311 311 311 313 310 311
264 265 267 268 269 271 273 274 276 278 280 282 284 286 288 292 296 301 306 308 310 311 314 319 322 322 318 305 327 330 326 325 328 330 327 328 327 326 319 315 313 314 311 306 306 308 309
264 265 265 266 269 270 272 274 276 276 279 281 283 285 286 289 293 298 302 304 306 309 312 315 319 320 309 304 319 316 313 316 321 326 324 327 327 320 323 316 317 312 304 305 305 305 301
263 264 265 266 267 270 272 274 275 276 278 279 281 283 285 287 292 297 300 302 304 305 308 313 316 315 301 311 313 310 313 308 311 315 315 317 318 314 311 314 313 307 307 300 309 305 303
267 263 262 267 269 273 274 276 275 275 276 278 280 281 283 288 292 296 299 300 301 303 305 311 310 310 300 311 310 323 328 320 324 318 314 315 313 309 310 308 303 305 295 302 309 315 315
269 275 271 268 271 275 280 281 276 278 276 277 277 280 284 288 293 295 297 298 302 307 306 308 304 301 302 299 308 314 319 325 322 319 313 306 305 304 304 302 300 303 302 303 305 317 314
266 268 272 278 281 280 283 291 286 284 281 278 284 285 289 293 296 298 300 300 296 294 293 287 295 296 308 304 304 302 312 323 317 305 298 300 298 297 300 296 301 302 304 305 309 313 310
268 266 269 273 280 274 281 289 289 289 290 295 292 300 306 299 303 301 305 299 297 299 290 289 286 286 289 294 285 288 296 290 291 289 292 292 288 291 292 295 295 298 300 301 303 305 307
276 274 271 270 271 276 277 280 284 285 285 287 295 299 305 307 307 301 299 300 310 309 293 289 290 287 286 283 279 280 285 285 282 280 277 280 290 297 293 294 292 291 291 296 297 303 303
286 284 284 279 270 275 275 279 281 280 280 281 290 296 300 307 296 296 293 307 316 313 294 290 295 296 296 289 283 286 273 276 282 279 280 283 284 284 288 290 291 292 293 293 295 299 296
277 282 283 289 292 283 280 275 278 280 278 281 286 290 296 299 295 292 294 302 312 314 290 293 298 314 311 295 299 300 298 274 270 277 280 281 287 285 282 285 288 292 298 295 295 294 296
279 280 282 281 288 295 282 281 270 269 279 284 281 282 287 291 290 291 292 293 303 288 283 288 297 296 293 294 300 304 305 301 292 277 280 280 288 287 288 293 286 297 295 295 295 292 286
287 285 286 288 286 289 293 284 269 262 273 281 283 281 288 294 283 292 289 285 279 275 291 288 289 290 290 291 290 294 290 283 284 284 280 282 278 282 284 287 291 287 289 291 288 284 285
286 287 288 290 290 289 289 293 283 277 277 271 271 277 290 297 304 299 279 275 270 280 277 290 295 293 284 290 290 286 289 282 280 286 288 287 288 280 280 272 276 276 277 279 286 286 289
282 284 286 288 289 288 288 289 298 295 290 272 265 273 280 282 297 295 269 267 271 275 284 286 290 288 286 287 289 288 284 286 287 276 283 288 288 292 293 290 272 283 276 282 282 286 288
282 282 283 285 286 287 287 288 288 292 299 290 263 269 275 275 276 271 267 269 273 278 287 286 282 290 286 288 285 285 286 300 290 283 280 293 287 292 292 295 288 286 301 285 281 283 281
288 286 285 285 285 285 287 287 286 285 288 298 275 271 282 260 267 265 263 267 275 278 284 284 281 283 286 287 288 286 289 295 298 297 285 285 283 288 298 293 287 287 285 287 291 282 286
292 290 289 288 287 286 287 287 284 284 281 289 284 268 285 244 260 265 262 272 282 282 279 281 285 282 280 284 286 286 286 291 301 301 292 295 291 284 284 294 299 299 296 292 281 282 289
299 298 295 293 290 287 287 287 285 281 279 273 274 281 289 266 262 260 266 269 277 279 277 278 275 279 285 285 282 280 288 307 317 298 294 297 291 285 284 287 296 294 297 296 292 290 282
302 300 298 297 295 293 290 288 283 280 278 273 271 270 274 269 271 266 265 268 272 278 277 277 278 277 277 277 281 284 281 289 304 307 309 308 291 286 284 288 295 292 295 298 296 289 291
299 299 297 296 296 297 297 294 292 287 277 272 268 268 271 267 268 270 268 277 269 271 274 271 274 271 270 273 273 275 279 286 287 290 298 299 286 290 292 296 298 297 294 297 295 294 292
296 296 296 296 296 297 296 296 294 292 288 277 271 270 272 269 268 276 281 271 275 270 270 267 269 270 267 270 272 279 278 280 283 291 287 288 288 291 290 294 293 291 293 294 291 290 290
287 288 289 291 293 294 295 296 295 293 293 284 281 282 276 272 271 266 270 273 282 282 280 272 272 271 269 269 277 278 283 287 287 290 289 289 288 290 291 297 297 291 291 291 294 296 296
286 285 285 286 289 292 291 293 293 291 289 290 288 285 276 270 271 269 267 273 275 283 279 283 274 272 274 280 284 282 282 283 285 283 281 284 286 288 290 296 288 296 301 298 293 294 295
288 288 288 289 290 289 292 293 295 295 294 290 291 286 280 274 274 271 271 271 274 272 275 280 272 274 271 275 275 275 279 282 281 282 279 277 279 285 287 288 294 294 295 295 294 293 296
284 282 282 284 281 284 286 289 295 295 296 294 291 292 288 280 273 274 273 271 267 268 269 267 269 279 271 265 268 267 271 278 285 287 281 280 284 281 288 289 290 297 299 309 309 298 307
217 216 244 259 273 281 286 288 290 291 292 294 299 292 291 284 282 278 272 270 269 261 264 275 263 262 271 267 264 267 271 278 280 284 290 281 282 277 281 286 295 301 307 320 301 308 333
258 267 272 272 273 277 282 287 287 286 288 289 296 300 292 289 283 282 275 267 266 263 255 260 264 263 268 265 269 271 276 272 282 289 284 284 285 285 286 287 291 315 325 307 323 339 348
230 249 263 265 265 267 269 281 281 282 281 288 296 305 304 292 289 295 285 271 264 262 261 258 259 263 261 270 270 278 276 276 279 282 283 278 283 287 286 289 311 325 325 322 326 337 347